SNOHOMISH--AT SNOHOMISH (SNAW1)

ObservedForecast/Trend
Date/Time (PST)StageDischargeDate/Time (PST)StageDischarge
2022-12-01 14:0016.5618000    2022-12-01 15:0015.2018000
2022-12-01 13:4516.8318000    2022-12-01 16:0013.8518000
2022-12-01 13:3017.0918000    2022-12-01 17:0012.4918000
2022-12-01 13:1517.3318000    2022-12-01 18:0011.1418000
2022-12-01 13:0017.5318000    2022-12-01 19:0010.0618000
2022-12-01 12:4517.6618000    2022-12-01 20:009.6018000
2022-12-01 12:3017.7018000    2022-12-01 21:009.5818000
2022-12-01 12:1517.6518000    2022-12-01 22:009.9818000
2022-12-01 12:0017.5318000    2022-12-01 23:0011.1918000
2022-12-01 11:4517.3518000    2022-12-02 00:0012.2418000
2022-12-01 11:3017.1218000    2022-12-02 01:0012.6518000
2022-12-01 11:1516.8318000    2022-12-02 02:0012.3418000
2022-12-01 11:0016.4918000    2022-12-02 03:0011.5818000
2022-12-01 10:4516.1118000    2022-12-02 04:0010.8118000
2022-12-01 10:3015.7018000    2022-12-02 05:009.8118000
2022-12-01 10:1515.2718000    2022-12-02 06:009.4318000
2022-12-01 10:0014.8118000    2022-12-02 07:009.3118000
2022-12-01 09:4514.3318000    2022-12-02 08:009.3018000
2022-12-01 09:3013.8318000    2022-12-02 09:009.6718000
2022-12-01 09:1513.3218000    2022-12-02 10:0012.7018000
2022-12-01 09:0012.8018000    2022-12-02 11:0015.6518000
2022-12-01 08:4512.2418000    2022-12-02 12:0017.1518000
2022-12-01 08:3011.6718000    2022-12-02 13:0017.2718000
2022-12-01 08:1511.0718000    2022-12-02 14:0016.4218000
2022-12-01 08:0010.5118000    2022-12-02 15:0015.0718000
2022-12-01 07:459.9918000    2022-12-02 16:0013.2818000
2022-12-01 07:309.4818000    2022-12-02 17:0011.4618000
2022-12-01 07:158.9918000    2022-12-02 18:0010.0618000
2022-12-01 07:008.5918000    2022-12-02 19:009.2118000
2022-12-01 06:458.3118000    2022-12-02 20:008.9518000
2022-12-01 06:308.1618000    2022-12-02 21:008.8318000
2022-12-01 06:158.1018000    2022-12-02 22:008.9918000
2022-12-01 06:008.1118000    2022-12-02 23:009.5318000
2022-12-01 05:458.1618000    2022-12-03 00:0011.2918000
2022-12-01 05:308.2618000    2022-12-03 01:0012.5718000
2022-12-01 05:158.3818000    2022-12-03 02:0012.9718000
2022-12-01 05:008.5218000    2022-12-03 03:0012.6718000
2022-12-01 04:458.6718000    2022-12-03 04:0012.0118000
2022-12-01 04:308.8418000    2022-12-03 05:0011.2718000
2022-12-01 04:159.0218000    2022-12-03 06:0010.6118000
2022-12-01 04:009.2118000    2022-12-03 07:009.8618000
2022-12-01 03:459.4218000    2022-12-03 08:009.4618000
2022-12-01 03:309.6518000    2022-12-03 09:009.5718000
2022-12-01 03:159.8818000    2022-12-03 10:0010.8918000
2022-12-01 03:0010.1118000    2022-12-03 11:0013.3418000
2022-12-01 02:4510.3618000    2022-12-03 12:0015.8018000
2022-12-01 02:3010.6118000    2022-12-03 13:0017.1018000
2022-12-01 02:1510.8718000    2022-12-03 14:0017.1518000
2022-12-01 02:0011.1218000    2022-12-03 15:0016.1918000
2022-12-01 01:4511.3718000    2022-12-03 16:0014.6318000
2022-12-01 01:3011.6118000    2022-12-03 17:0012.5318000
2022-12-01 01:1511.8518000    2022-12-03 18:0010.8818000
2022-12-01 01:0012.0718000    2022-12-03 19:009.2618000
2022-12-01 00:4512.2718000    2022-12-03 20:008.4818000
2022-12-01 00:3012.4618000    2022-12-03 21:007.5918000
2022-12-01 00:1512.6318000    2022-12-03 22:006.9818000
2022-12-01 00:0012.7718000    2022-12-03 23:007.3918000
2022-11-30 23:4512.9018000    2022-12-04 00:008.4918000
2022-11-30 23:3012.9618000    2022-12-04 01:0010.1418000
2022-11-30 23:1513.0018000    2022-12-04 02:0012.2218000
2022-11-30 23:0013.0218000    2022-12-04 03:0013.5818000
2022-11-30 22:4512.9918000    2022-12-04 04:0013.9818000
2022-11-30 22:3012.9118000    2022-12-04 05:0013.4518000
2022-11-30 22:1512.7818000    2022-12-04 06:0012.5118000
2022-11-30 22:0012.6418000    2022-12-04 07:0011.5818000
2022-11-30 21:4512.5118000    2022-12-04 08:0010.9218000
2022-11-30 21:3012.3518000    2022-12-04 09:0010.5418000
2022-11-30 21:1512.1518000    2022-12-04 10:0010.7118000
2022-11-30 21:0011.9918000    2022-12-04 11:0011.6618000
2022-11-30 20:4511.8218000    2022-12-04 12:0013.7818000
2022-11-30 20:3011.6618000    2022-12-04 13:0015.7418000
2022-11-30 20:1511.4818000    2022-12-04 14:0016.8218000
2022-11-30 20:0011.3218000    2022-12-04 15:0016.8018000
2022-11-30 19:4511.1518000    2022-12-04 16:0015.8118000
2022-11-30 19:3010.9918000    2022-12-04 17:0014.1418000
2022-11-30 19:1510.8518000    2022-12-04 18:0011.9718000
2022-11-30 19:0010.7618000    2022-12-04 19:0010.3318000
2022-11-30 18:4510.7718000    2022-12-04 20:008.6418000
2022-11-30 18:3010.8318000    2022-12-04 21:007.5718000
2022-11-30 18:1510.9618000    2022-12-04 22:006.2718000
2022-11-30 18:0011.1518000    2022-12-04 23:005.6318000
2022-11-30 17:4511.3718000    2022-12-05 00:005.8118000
2022-11-30 17:3011.6418000    2022-12-05 01:007.4918000
2022-11-30 17:1511.9318000    2022-12-05 02:0010.0118000
2022-11-30 17:0012.2218000    2022-12-05 03:0012.8418000
2022-11-30 16:4512.5218000    2022-12-05 04:0015.3218000
2022-11-30 16:3012.8418000    2022-12-05 05:0014.9418000
2022-11-30 16:1513.1518000    2022-12-05 06:0014.4518000
2022-11-30 16:0013.4818000    2022-12-05 07:0013.3518000
2022-11-30 15:4513.8018000    2022-12-05 08:0012.2118000
2022-11-30 15:3014.1418000    2022-12-05 09:0011.5118000
2022-11-30 15:1514.4918000    2022-12-05 10:0011.1818000
2022-11-30 15:0014.8218000    2022-12-05 11:0011.4718000
2022-11-30 14:4515.1618000    2022-12-05 12:0012.9218000
2022-11-30 14:3015.4718000    2022-12-05 13:0015.1218000
2022-11-30 14:1515.7718000    2022-12-05 14:0016.4118000
2022-11-30 14:0016.0618000    2022-12-05 15:0016.4818000
2022-11-30 13:4516.3518000    2022-12-05 16:0015.4618000
2022-11-30 13:3016.6018000    2022-12-05 17:0013.6518000
2022-11-30 13:1516.8618000    2022-12-05 18:0011.6018000
2022-11-30 13:0017.1218000    2022-12-05 19:009.8618000
2022-11-30 12:4517.3818000    2022-12-05 20:008.0518000
2022-11-30 12:3017.6318000    2022-12-05 21:006.6718000
2022-11-30 12:1517.8418000    2022-12-05 22:005.4018000
2022-11-30 12:0018.0018000    2022-12-05 23:005.1218000
2022-11-30 11:4518.0619609    2022-12-06 00:005.1018000
2022-11-30 11:3018.0419072    2022-12-06 01:005.7118000
2022-11-30 11:1517.9118000    2022-12-06 02:008.1118000
2022-11-30 11:0017.7018000    2022-12-06 03:0011.5318000
2022-11-30 10:4517.4718000    2022-12-06 04:0014.2018000
2022-11-30 10:3017.1718000    2022-12-06 05:0015.5618000
2022-11-30 10:1516.8318000    2022-12-06 06:0015.7818000
2022-11-30 10:0016.4418000    2022-12-06 07:0015.2018000
2022-11-30 09:4516.0318000    2022-12-06 08:0014.1818000
2022-11-30 09:3015.5918000    2022-12-06 09:0012.8418000
2022-11-30 09:1515.1218000    2022-12-06 10:0011.9718000
2022-11-30 09:0014.6118000    2022-12-06 11:0011.6718000
2022-11-30 08:4514.0918000    2022-12-06 12:0011.9518000
2022-11-30 08:3013.5118000    2022-12-06 13:0013.1818000
2022-11-30 08:1512.9118000    2022-12-06 14:0014.9518000
2022-11-30 08:0012.2418000    2022-12-06 15:0015.9918000
2022-11-30 07:4511.5618000    2022-12-06 16:0016.0318000
2022-11-30 07:3010.8818000    2022-12-06 17:0015.0218000
2022-11-30 07:1510.2418000    2022-12-06 18:0013.0518000
2022-11-30 07:009.6618000    2022-12-06 19:0011.2718000
2022-11-30 06:459.0618000    2022-12-06 20:009.4318000
2022-11-30 06:308.5818000    2022-12-06 21:007.4318000
2022-11-30 06:158.2118000    2022-12-06 22:005.9818000
2022-11-30 06:007.9418000    2022-12-06 23:004.8718000
2022-11-30 05:457.8118000    2022-12-07 00:004.8218000
2022-11-30 05:307.7918000    2022-12-07 01:004.7218000
2022-11-30 05:157.8118000    2022-12-07 02:004.8418000
2022-11-30 05:007.8618000    2022-12-07 03:007.5918000
2022-11-30 04:457.9418000    2022-12-07 04:0011.6618000
2022-11-30 04:308.0418000    2022-12-07 05:0014.6518000
2022-11-30 04:158.1618000    2022-12-07 06:0016.1518000
2022-11-30 04:008.2918000    2022-12-07 07:0016.3618000
2022-11-30 03:458.4418000    2022-12-07 08:0015.7318000
2022-11-30 03:308.6118000    2022-12-07 09:0014.6618000
2022-11-30 03:158.7818000    2022-12-07 10:0013.3218000
2022-11-30 03:008.9818000    2022-12-07 11:0012.3518000
2022-11-30 02:459.1918000    2022-12-07 12:0012.0018000
2022-11-30 02:309.4318000    2022-12-07 13:0012.5418000
2022-11-30 02:159.6618000    2022-12-07 14:0014.8618000
2022-11-30 02:009.9218000    2022-12-07 15:0015.4318000
2022-11-30 01:4510.1918000    2022-12-07 16:0015.5818000
2022-11-30 01:3010.4718000    2022-12-07 17:0014.6118000
2022-11-30 01:1510.7618000    2022-12-07 18:0012.6818000
2022-11-30 01:0011.0518000    2022-12-07 19:0011.0718000
2022-11-30 00:4511.3218000    2022-12-07 20:009.1718000
2022-11-30 00:3011.6118000    2022-12-07 21:007.2018000
2022-11-30 00:1511.8818000    2022-12-07 22:005.6918000
2022-11-30 00:0012.1418000    2022-12-07 23:004.7718000
2022-11-29 23:4512.4118000    2022-12-08 00:004.6418000
2022-11-29 23:3012.6418000    2022-12-08 01:004.5318000
2022-11-29 23:1512.8618000    2022-12-08 02:004.7518000
2022-11-29 23:0013.0518000    2022-12-08 03:007.5118000
2022-11-29 22:4513.1818000    2022-12-08 04:0011.8918000
2022-11-29 22:3013.3218000    2022-12-08 05:0015.0818000
2022-11-29 22:1513.4318000    2022-12-08 06:0017.2718000
2022-11-29 22:0013.5218000    2022-12-08 07:0016.8018000
2022-11-29 21:4513.5618000    2022-12-08 08:0016.1218000
2022-11-29 21:3013.5418000    2022-12-08 09:0015.0118000
2022-11-29 21:1513.5018000    2022-12-08 10:0013.7218000
2022-11-29 21:0013.4118000    2022-12-08 11:0012.6318000
2022-11-29 20:4513.2618000    2022-12-08 12:0012.2518000
2022-11-29 20:3013.1018000    2022-12-08 13:0012.5318000
2022-11-29 20:1512.9018000    2022-12-08 14:0013.3518000
2022-11-29 20:0012.7218000    2022-12-08 15:0014.4318000
2022-11-29 19:4512.5618000    2022-12-08 16:0015.0718000
2022-11-29 19:3012.3818000    2022-12-08 17:0015.0818000
2022-11-29 19:1512.2218000    2022-12-08 18:0014.1718000
2022-11-29 19:0012.0918000    2022-12-08 19:0012.3018000
2022-11-29 18:4511.9718000    2022-12-08 20:0010.8718000
2022-11-29 18:3011.7818000    2022-12-08 21:008.9018000
2022-11-29 18:1511.6418000    2022-12-08 22:007.0218000
2022-11-29 18:0011.5018000    2022-12-08 23:005.4818000
2022-11-29 17:4511.4118000    2022-12-09 00:004.7018000
2022-11-29 17:3011.4018000    2022-12-09 01:004.5118000
2022-11-29 17:1511.4718000    2022-12-09 02:004.4118000
2022-11-29 17:0011.5818000    2022-12-09 03:004.6918000
2022-11-29 16:4511.7418000    2022-12-09 04:007.3718000
2022-11-29 16:3011.9418000    2022-12-09 05:0011.9118000
2022-11-29 16:1512.1618000    2022-12-09 06:0015.2118000
2022-11-29 16:0012.4018000    2022-12-09 07:0016.7818000
2022-11-29 15:4512.6618000    2022-12-09 08:0016.9618000
2022-11-29 15:3012.9218000    2022-12-09 09:0016.2418000
2022-11-29 15:1513.1918000    2022-12-09 10:0015.1018000
2022-11-29 15:0013.4718000    2022-12-09 11:0013.8118000
2022-11-29 14:4513.7618000    2022-12-09 12:0012.6518000
2022-11-29 14:3014.0618000    2022-12-09 13:0012.2918000
2022-11-29 14:1514.3418000    2022-12-09 14:0012.6418000
2022-11-29 14:0014.6318000    2022-12-09 15:0013.5918000
2022-11-29 13:4514.9118000    2022-12-09 16:0014.4618000
2022-11-29 13:3015.1718000    2022-12-09 17:0014.5818000
2022-11-29 13:1515.4318000    2022-12-09 18:0013.6818000
2022-11-29 13:0015.6718000    2022-12-09 19:0012.0218000
2022-11-29 12:4515.9118000    2022-12-09 20:0010.7618000
2022-11-29 12:3016.1418000    2022-12-09 21:008.8518000
2022-11-29 12:1516.3618000    2022-12-09 22:007.0218000
2022-11-29 12:0016.5818000    2022-12-09 23:005.5418000
2022-11-29 11:4516.7718000    2022-12-10 00:004.6918000
2022-11-29 11:3016.9218000    2022-12-10 01:004.6218000
2022-11-29 11:1517.0418000    2022-12-10 02:004.5618000
2022-11-29 11:0017.0618000    2022-12-10 03:004.7018000
2022-11-29 10:4517.0418000    2022-12-10 04:007.6718000
2022-11-29 10:3016.9618000    2022-12-10 05:0011.9718000
2022-11-29 10:1516.8418000    2022-12-10 06:0015.1918000
2022-11-29 10:0016.6418000    2022-12-10 07:0016.7218000
2022-11-29 09:4516.3918000    2022-12-10 08:0016.9618000
2022-11-29 09:3016.1218000    2022-12-10 09:0016.4218000
2022-11-29 09:1515.8118000    2022-12-10 10:0015.5218000
2022-11-29 09:0015.4718000    2022-12-10 11:0014.4418000
2022-11-29 08:4515.0618000    2022-12-10 12:0013.2218000
2022-11-29 08:3014.6318000    2022-12-10 13:0012.4718000
2022-11-29 08:1514.1318000    2022-12-10 14:0012.2018000
2022-11-29 08:0013.5618000    2022-12-10 15:0012.4818000
2022-11-29 07:4512.9118000    2022-12-10 16:0013.1718000
2022-11-29 07:3012.1718000    2022-12-10 17:0014.0018000
2022-11-29 07:1511.3718000    2022-12-10 18:0014.1218000
2022-11-29 07:0010.5618000    2022-12-10 19:0013.1818000
2022-11-29 06:459.7918000    2022-12-10 20:0011.8018000
2022-11-29 06:309.1118000    2022-12-10 21:0010.6318000
2022-11-29 06:158.5618000    2022-12-10 22:008.6918000
2022-11-29 06:008.1918000    2022-12-10 23:006.9218000
2022-11-29 05:457.9718000    2022-12-11 00:005.4618000
2022-11-29 05:307.8618000    2022-12-11 01:004.6118000
2022-11-29 05:157.8418000    2022-12-11 02:004.5718000
2022-11-29 05:007.8718000    2022-12-11 03:004.5218000
2022-11-29 04:457.9118000    2022-12-11 04:004.7218000
2022-11-29 04:307.9618000   
2022-11-29 04:158.0218000   
2022-11-29 04:008.1018000   
2022-11-29 03:458.1918000   
2022-11-29 03:308.2818000   
2022-11-29 03:158.4018000   
2022-11-29 03:008.5118000   
2022-11-29 02:458.6418000   
2022-11-29 02:308.7818000   
2022-11-29 02:158.9318000   
2022-11-29 02:009.1118000   
2022-11-29 01:459.3018000   
2022-11-29 01:309.4918000   
2022-11-29 01:159.7118000   
2022-11-29 01:009.9418000   
2022-11-29 00:4510.1918000   
2022-11-29 00:3010.4618000   
2022-11-29 00:1510.7418000   
2022-11-29 00:0011.0418000   
2022-11-28 23:4511.3418000   
2022-11-28 23:3011.6618000   
2022-11-28 23:1511.9718000   
2022-11-28 23:0012.2718000   
2022-11-28 22:4512.5518000   
2022-11-28 22:3012.8418000   
2022-11-28 22:1513.1118000   
2022-11-28 22:0013.3718000   
2022-11-28 21:4513.6018000   
2022-11-28 21:3013.8118000   
2022-11-28 21:1513.9918000   
2022-11-28 21:0014.1418000   
2022-11-28 20:4514.2418000   
2022-11-28 20:3014.3018000   
2022-11-28 20:1514.3218000   
2022-11-28 20:0014.3018000   
2022-11-28 19:4514.2418000   
2022-11-28 19:3014.1618000   
2022-11-28 19:1514.0618000   
2022-11-28 19:0013.9418000   
2022-11-28 18:4513.8018000   
2022-11-28 18:3013.6618000   
2022-11-28 18:1513.5318000   
2022-11-28 18:0013.4018000   
2022-11-28 17:4513.2418000   
2022-11-28 17:3013.0918000   
2022-11-28 17:1512.9518000   
2022-11-28 17:0012.8318000   
2022-11-28 16:4512.7318000   
2022-11-28 16:3012.6718000   
2022-11-28 16:1512.6718000   
2022-11-28 16:0012.7418000   
2022-11-28 15:4512.8618000   
2022-11-28 15:3013.0118000   
2022-11-28 15:1513.1818000   
2022-11-28 15:0013.3818000   
2022-11-28 14:4513.6018000   
2022-11-28 14:3013.8418000   
2022-11-28 14:1514.0818000   
2022-11-28 14:0014.3318000   
2022-11-28 13:4514.6018000   
2022-11-28 13:3014.8618000   
2022-11-28 13:1515.1218000   
2022-11-28 13:0015.3818000   
2022-11-28 12:4515.6218000   
2022-11-28 12:3015.8518000   
2022-11-28 12:1516.0918000   
2022-11-28 12:0016.3118000   
2022-11-28 11:4516.5318000   
2022-11-28 11:3016.7218000   
2022-11-28 11:1516.9218000   
2022-11-28 11:0017.1118000   
2022-11-28 10:4517.2818000   
2022-11-28 10:3017.3918000   
2022-11-28 10:1517.4618000   
2022-11-28 10:0017.4618000   
2022-11-28 09:4517.4218000   
2022-11-28 09:3017.3218000   
2022-11-28 09:1517.1318000   
2022-11-28 09:0016.9218000   
2022-11-28 08:4516.6518000   
2022-11-28 08:3016.3618000   
2022-11-28 08:1516.0118000   
2022-11-28 08:0015.6418000   
2022-11-28 07:4515.2518000   
2022-11-28 07:3014.8218000   
2022-11-28 07:1514.3318000   
2022-11-28 07:0013.7418000   
2022-11-28 06:4513.0818000   
2022-11-28 06:3012.3118000   
2022-11-28 06:1511.4918000   
2022-11-28 06:0010.6818000   
2022-11-28 05:4510.0018000   
2022-11-28 05:309.5118000   
2022-11-28 05:159.2118000   
2022-11-28 05:009.0518000   
2022-11-28 04:458.9818000   
2022-11-28 04:308.9718000   
2022-11-28 04:158.9918000   
2022-11-28 04:009.0218000   
2022-11-28 03:459.0718000   
2022-11-28 03:309.1318000   
2022-11-28 03:159.2118000   
2022-11-28 03:009.2718000   
2022-11-28 02:459.3518000   
2022-11-28 02:309.4418000   
2022-11-28 02:159.5518000   
2022-11-28 02:009.6518000   
2022-11-28 01:459.7818000   
2022-11-28 01:309.9218000   
2022-11-28 01:1510.0818000   
2022-11-28 01:0010.2418000   
2022-11-28 00:4510.4318000   
2022-11-28 00:3010.6318000   
2022-11-28 00:1510.8418000   
2022-11-28 00:0011.0818000   
2022-11-27 23:4511.3418000   
2022-11-27 23:3011.6118000   
2022-11-27 23:1511.8918000   
2022-11-27 23:0012.1918000   
2022-11-27 22:4512.4918000   
2022-11-27 22:3012.7918000   
2022-11-27 22:1513.0818000   
2022-11-27 22:0013.3818000   
2022-11-27 21:4513.6918000   
2022-11-27 21:3013.9718000   
2022-11-27 21:1514.2518000   
2022-11-27 21:0014.5118000   
2022-11-27 20:4514.7618000   
2022-11-27 20:3014.9818000   
2022-11-27 20:1515.1818000   
2022-11-27 20:0015.3418000   
2022-11-27 19:4515.4818000   
2022-11-27 19:3015.5718000   
2022-11-27 19:1515.6018000   
2022-11-27 19:0015.5918000   
2022-11-27 18:4515.5418000   
2022-11-27 18:3015.4618000   
2022-11-27 18:1515.3518000   
2022-11-27 18:0015.2218000   
2022-11-27 17:4515.0618000   
2022-11-27 17:3014.8818000   
2022-11-27 17:1514.7018000   
2022-11-27 17:0014.5118000   
2022-11-27 16:4514.3018000   
2022-11-27 16:3014.0918000   
2022-11-27 16:1513.8518000   
2022-11-27 16:0013.6318000   
2022-11-27 15:4513.4018000   
2022-11-27 15:3013.2018000   
2022-11-27 15:1513.0818000   
2022-11-27 15:0013.0418000   
2022-11-27 14:4513.0818000   
2022-11-27 14:3013.1518000   
2022-11-27 14:1513.2718000   
2022-11-27 14:0013.4318000   
2022-11-27 13:4513.6218000   
2022-11-27 13:3013.8318000   
2022-11-27 13:1514.0618000   
2022-11-27 13:0014.3018000   
2022-11-27 12:4514.5318000   
2022-11-27 12:3014.7918000   
2022-11-27 12:1515.0618000   
2022-11-27 12:0015.3118000   
2022-11-27 11:4515.5718000   
2022-11-27 11:3015.8318000   
2022-11-27 11:1516.0818000   
2022-11-27 11:0016.3218000   
2022-11-27 10:4516.5718000   
2022-11-27 10:3016.8218000   
2022-11-27 10:1517.0818000   
2022-11-27 10:0017.3118000   
2022-11-27 09:4517.5118000   
2022-11-27 09:3017.6618000   
2022-11-27 09:1517.7318000   
2022-11-27 09:0017.7018000   
2022-11-27 08:4517.6118000   
2022-11-27 08:3017.4518000   
2022-11-27 08:1517.2418000   
2022-11-27 08:0016.9918000   
2022-11-27 07:4516.6818000   
2022-11-27 07:3016.3518000   
2022-11-27 07:1515.9618000   
2022-11-27 07:0015.5118000   
2022-11-27 06:4515.0518000   
2022-11-27 06:3014.5218000   
2022-11-27 06:1513.9418000   
2022-11-27 06:0013.2618000   
2022-11-27 05:4512.5118000   
2022-11-27 05:3011.6918000   
2022-11-27 05:1510.8718000   
2022-11-27 05:0010.0018000   
2022-11-27 04:459.2418000   
2022-11-27 04:308.6018000   
2022-11-27 04:158.0518000   
2022-11-27 04:007.6918000   
2022-11-27 03:457.5418000   
2022-11-27 03:307.5318000   
2022-11-27 03:157.5618000   
2022-11-27 03:007.6118000   
2022-11-27 02:457.6718000   
2022-11-27 02:307.7318000   
2022-11-27 02:157.8218000   
2022-11-27 02:007.9118000   
2022-11-27 01:458.0218000   
2022-11-27 01:308.1418000   
2022-11-27 01:158.2818000   
2022-11-27 01:008.4518000   
2022-11-27 00:458.6218000   
2022-11-27 00:308.8518000   
2022-11-27 00:159.0518000   
2022-11-27 00:009.2718000   
2022-11-26 23:459.5318000   
2022-11-26 23:309.8018000   
2022-11-26 23:1510.1118000   
2022-11-26 23:0010.4118000   
2022-11-26 22:4510.7418000   
2022-11-26 22:3011.0818000   
2022-11-26 22:1511.4518000   
2022-11-26 22:0011.8118000   
2022-11-26 21:4512.1818000   
2022-11-26 21:3012.5518000   
2022-11-26 21:1512.9018000   
2022-11-26 21:0013.2618000   
2022-11-26 20:4513.5918000   
2022-11-26 20:3013.9318000   
2022-11-26 20:1514.2618000   
2022-11-26 20:0014.5618000   
2022-11-26 19:4514.8718000   
2022-11-26 19:3015.1518000   
2022-11-26 19:1515.3918000   
2022-11-26 19:0015.5918000   
2022-11-26 18:4515.7318000   
2022-11-26 18:3015.8118000   
2022-11-26 18:1515.8618000   
2022-11-26 18:0015.8318000   
2022-11-26 17:4515.7518000   
2022-11-26 17:3015.6318000   
2022-11-26 17:1515.4518000   
2022-11-26 17:0015.2818000   
2022-11-26 16:4515.0618000   
2022-11-26 16:3014.8218000   
2022-11-26 16:1514.5618000   
2022-11-26 16:0014.3118000   
2022-11-26 15:4514.0518000   
2022-11-26 15:3013.7618000   
2022-11-26 15:1513.5018000   
2022-11-26 15:0013.2118000   
2022-11-26 14:4512.9318000   
2022-11-26 14:3012.6918000   
2022-11-26 14:1512.5318000   
2022-11-26 14:0012.4618000   
2022-11-26 13:4512.4618000   
2022-11-26 13:3012.5318000   
2022-11-26 13:1512.6718000   
2022-11-26 13:0012.8518000   
2022-11-26 12:4513.0618000   
2022-11-26 12:3013.2818000   
2022-11-26 12:1513.5218000   
2022-11-26 12:0013.7718000   
2022-11-26 11:4514.0318000   
2022-11-26 11:3014.2818000   
2022-11-26 11:1514.5318000   
2022-11-26 11:0014.7818000   
2022-11-26 10:4515.0118000   
2022-11-26 10:3015.2618000   
2022-11-26 10:1515.5018000   
2022-11-26 10:0015.7218000   
2022-11-26 09:4515.9518000   
2022-11-26 09:3016.1718000   
2022-11-26 09:1516.3818000   
2022-11-26 09:0016.5518000   
2022-11-26 08:4516.6918000   
2022-11-26 08:3016.7418000   
2022-11-26 08:1516.7518000   
2022-11-26 08:0016.7018000   
2022-11-26 07:4516.5818000   
2022-11-26 07:3016.4518000   
2022-11-26 07:1516.2218000   
2022-11-26 07:0015.9618000   
2022-11-26 06:4515.6518000   
2022-11-26 06:3015.2818000   
2022-11-26 06:1514.8918000   
2022-11-26 06:0014.4318000   
2022-11-26 05:4513.8818000   
2022-11-26 05:3013.2318000   
2022-11-26 05:1512.4618000   
2022-11-26 05:0011.6118000   
2022-11-26 04:4510.7118000   
2022-11-26 04:309.8218000   
2022-11-26 04:159.0718000   
2022-11-26 04:008.4518000   
2022-11-26 03:458.0318000   
2022-11-26 03:307.7818000   
2022-11-26 03:157.6718000   
2022-11-26 03:007.6418000   
2022-11-26 02:457.6518000   
2022-11-26 02:307.6718000   
2022-11-26 02:157.7118000   
2022-11-26 02:007.7618000   
2022-11-26 01:457.8318000   
2022-11-26 01:307.9018000   
2022-11-26 01:157.9818000   
2022-11-26 01:008.0818000   
2022-11-26 00:458.1918000   
2022-11-26 00:308.3118000   
2022-11-26 00:158.4418000   
2022-11-26 00:008.5918000   
2022-11-25 23:458.7618000   
2022-11-25 23:308.9618000   
2022-11-25 23:159.1718000   
2022-11-25 23:009.4018000   
2022-11-25 22:459.6618000   
2022-11-25 22:309.9518000   
2022-11-25 22:1510.2518000   
2022-11-25 22:0010.5718000   
2022-11-25 21:4510.9218000   
2022-11-25 21:3011.2818000   
2022-11-25 21:1511.6618000   
2022-11-25 21:0012.0318000   
2022-11-25 20:4512.4118000   
2022-11-25 20:3012.7818000   
2022-11-25 20:1513.1418000   
2022-11-25 20:0013.5018000   
2022-11-25 19:4513.8518000   
2022-11-25 19:3014.2018000   
2022-11-25 19:1514.5518000   
2022-11-25 19:0014.8818000   
2022-11-25 18:4515.1818000   
2022-11-25 18:3015.4718000   
2022-11-25 18:1515.7118000   
2022-11-25 18:0015.9118000   
2022-11-25 17:4516.0418000   
2022-11-25 17:3016.1218000   
2022-11-25 17:1516.1218000   
2022-11-25 17:0016.0618000   
2022-11-25 16:4515.9418000   
2022-11-25 16:3015.7918000   
2022-11-25 16:1515.6218000   
2022-11-25 16:0015.4118000   
2022-11-25 15:4515.1918000   
2022-11-25 15:3014.9718000   
2022-11-25 15:1514.7218000   
2022-11-25 15:0014.4818000   
2022-11-25 14:4514.2018000   
2022-11-25 14:3013.9018000   
2022-11-25 14:1513.5818000   
2022-11-25 14:0013.2318000   
2022-11-25 13:4512.9118000   
2022-11-25 13:3012.7118000   
2022-11-25 13:1512.5918000   
2022-11-25 13:0012.5818000   
2022-11-25 12:4512.6318000   
2022-11-25 12:3012.7418000   
2022-11-25 12:1512.9418000   
2022-11-25 12:0013.1618000   
2022-11-25 11:4513.3918000   
2022-11-25 11:3013.6418000   
2022-11-25 11:1513.9218000   
2022-11-25 11:0014.2118000   
2022-11-25 10:4514.5018000   
2022-11-25 10:3014.7518000   
2022-11-25 10:1514.9718000   
2022-11-25 10:0015.2318000   
2022-11-25 09:4515.4618000   
2022-11-25 09:3015.6818000   
2022-11-25 09:1515.9118000   
2022-11-25 09:0016.1318000   
2022-11-25 08:4516.3618000   
2022-11-25 08:3016.5818000   
2022-11-25 08:1516.7718000   
2022-11-25 08:0016.9518000   
2022-11-25 07:4517.0318000   
2022-11-25 07:3017.0918000   
2022-11-25 07:1517.0218000   
2022-11-25 07:0016.9618000   
2022-11-25 06:4516.7818000   
2022-11-25 06:3016.5618000   
2022-11-25 06:1516.2818000   
2022-11-25 06:0015.9318000   
2022-11-25 05:4515.5618000   
2022-11-25 05:3015.0918000   
2022-11-25 05:1514.5918000   
2022-11-25 05:0014.0218000   
2022-11-25 04:4513.3818000   
2022-11-25 04:3012.6318000   
2022-11-25 04:1511.8118000   
2022-11-25 04:0010.9218000   
2022-11-25 03:4510.0418000   
2022-11-25 03:309.1918000   
2022-11-25 03:158.4618000   
2022-11-25 03:007.8318000   
2022-11-25 02:457.4118000   
2022-11-25 02:307.1918000   
2022-11-25 02:157.1218000   
2022-11-25 02:007.1418000   
2022-11-25 01:457.1918000   
2022-11-25 01:307.2618000   
2022-11-25 01:157.3518000   
2022-11-25 01:007.4618000   
2022-11-25 00:457.5618000   
2022-11-25 00:307.6918000   
2022-11-25 00:157.8318000   
2022-11-25 00:007.9918000   
2022-11-24 23:458.1618000   
2022-11-24 23:308.3518000   
2022-11-24 23:158.5618000   
2022-11-24 23:008.7918000   
2022-11-24 22:459.0418000   
2022-11-24 22:309.3118000   
2022-11-24 22:159.6018000   
2022-11-24 22:009.9218000   
2022-11-24 21:4510.2518000   
2022-11-24 21:3010.6118000   
2022-11-24 21:1510.9818000   
2022-11-24 21:0011.3818000   
2022-11-24 20:4511.7818000   
2022-11-24 20:3012.1818000   
2022-11-24 20:1512.5818000   
2022-11-24 20:0012.9718000   
2022-11-24 19:4513.3718000   
2022-11-24 19:3013.7518000   
2022-11-24 19:1514.1318000   
2022-11-24 19:0014.5118000   
2022-11-24 18:4514.8718000   
2022-11-24 18:3015.2218000   
2022-11-24 18:1515.5518000   
2022-11-24 18:0015.8618000   
2022-11-24 17:4516.1418000   
2022-11-24 17:3016.3718000   
2022-11-24 17:1516.5418000   
2022-11-24 17:0016.6518000   
2022-11-24 16:4516.6918000   
2022-11-24 16:3016.6518000   
2022-11-24 16:1516.5418000   
2022-11-24 16:0016.3918000   
2022-11-24 15:4516.1818000   
2022-11-24 15:3015.9418000   
2022-11-24 15:1515.6718000   
2022-11-24 15:0015.3718000   
2022-11-24 14:4515.1018000   
2022-11-24 14:3014.7918000   
2022-11-24 14:1514.4918000   
2022-11-24 14:0014.1818000   
2022-11-24 13:4513.8718000   
2022-11-24 13:3013.5418000   
2022-11-24 13:1513.1618000   
2022-11-24 13:0012.7918000   
2022-11-24 12:4512.4718000   
2022-11-24 12:3012.2518000   
2022-11-24 12:1512.1318000   
2022-11-24 12:0012.1018000   
2022-11-24 11:4512.1818000   
2022-11-24 11:3012.3218000   
2022-11-24 11:1512.5018000   
2022-11-24 11:0012.7118000   
2022-11-24 10:4512.9518000   
2022-11-24 10:3013.1918000   
2022-11-24 10:1513.4518000   
2022-11-24 10:0013.7118000   
2022-11-24 09:4513.9718000   
2022-11-24 09:3014.2118000   
2022-11-24 09:1514.4618000   
2022-11-24 09:0014.7118000   
2022-11-24 08:4514.9418000   
2022-11-24 08:3015.1618000   
2022-11-24 08:1515.3718000   
2022-11-24 08:0015.5918000   
2022-11-24 07:4515.8018000   
2022-11-24 07:3015.9718000   
2022-11-24 07:1516.1418000   
2022-11-24 07:0016.2718000   
2022-11-24 06:4516.3418000   
2022-11-24 06:3016.3618000   
2022-11-24 06:1516.3318000   
2022-11-24 06:0016.2118000   
2022-11-24 05:4516.0418000   
2022-11-24 05:3015.8318000   
2022-11-24 05:1515.5718000   
2022-11-24 05:0015.3018000   
2022-11-24 04:4514.9418000   
2022-11-24 04:3014.5318000   
2022-11-24 04:1514.0618000   
2022-11-24 04:0013.5118000   
2022-11-24 03:4512.8618000   
2022-11-24 03:3012.1018000   
2022-11-24 03:1511.2818000   
2022-11-24 03:0010.4918000   
2022-11-24 02:459.7618000   
2022-11-24 02:309.2218000   
2022-11-24 02:158.8418000   
2022-11-24 02:008.6318000   
2022-11-24 01:458.5618000   
2022-11-24 01:308.5718000   
2022-11-24 01:158.6118000   
2022-11-24 01:008.6718000   
2022-11-24 00:458.7518000   
2022-11-24 00:308.8318000   
2022-11-24 00:158.9218000   
2022-11-24 00:009.0218000   
2022-11-23 23:459.1318000   
2022-11-23 23:309.2618000   
2022-11-23 23:159.4018000   
2022-11-23 23:009.5618000   
2022-11-23 22:459.7218000   
2022-11-23 22:309.9018000   
2022-11-23 22:1510.1118000   
2022-11-23 22:0010.3218000   
2022-11-23 21:4510.5618000   
2022-11-23 21:3010.8118000   
2022-11-23 21:1511.0918000   
2022-11-23 21:0011.3818000   
2022-11-23 20:4511.6918000   
2022-11-23 20:3012.0118000   
2022-11-23 20:1512.3518000   
2022-11-23 20:0012.6818000   
2022-11-23 19:4513.0218000   
2022-11-23 19:3013.3518000   
2022-11-23 19:1513.7018000   
2022-11-23 19:0014.0318000   
2022-11-23 18:4514.3618000   
2022-11-23 18:3014.6818000   
2022-11-23 18:1515.0118000   
2022-11-23 18:0015.3118000   
2022-11-23 17:4515.6218000   
2022-11-23 17:3015.9118000   
2022-11-23 17:1516.1618000   
2022-11-23 17:0016.3818000   
2022-11-23 16:4516.5418000   
2022-11-23 16:3016.6318000   
2022-11-23 16:1516.6718000   
2022-11-23 16:0016.6418000   
2022-11-23 15:4516.5518000   
2022-11-23 15:3016.4018000   
2022-11-23 15:1516.2018000   
2022-11-23 15:0015.9518000   
2022-11-23 14:4515.6618000   
2022-11-23 14:3015.3918000   
2022-11-23 14:1515.0718000   
2022-11-23 14:0014.7718000   
2022-11-23 13:4514.4318000   
2022-11-23 13:3014.1018000   
2022-11-23 13:1513.7718000   
2022-11-23 13:0013.4418000   
2022-11-23 12:4513.1018000   
2022-11-23 12:3012.7618000   
2022-11-23 12:1512.4518000   
2022-11-23 12:0012.1918000   
2022-11-23 11:4512.0118000   
2022-11-23 11:3011.9318000   
2022-11-23 11:1511.9218000   
2022-11-23 11:0011.9918000   
2022-11-23 10:4512.1318000   
2022-11-23 10:3012.2818000   
2022-11-23 10:1512.4718000   
2022-11-23 10:0012.6818000   
2022-11-23 09:4512.9018000   
2022-11-23 09:3013.1118000   
2022-11-23 09:1513.3418000   
2022-11-23 09:0013.5618000   
2022-11-23 08:4513.7918000   
2022-11-23 08:3014.0118000   
2022-11-23 08:1514.2118000   
2022-11-23 08:0014.4318000   
2022-11-23 07:4514.6318000   
2022-11-23 07:3014.8318000   
2022-11-23 07:1515.0218000   
2022-11-23 07:0015.2118000   
2022-11-23 06:4515.3818000   
2022-11-23 06:3015.5318000   
2022-11-23 06:1515.6618000   
2022-11-23 06:0015.7518000   
2022-11-23 05:4515.8118000   
2022-11-23 05:3015.8018000   
2022-11-23 05:1515.7618000   
2022-11-23 05:0015.6518000   
2022-11-23 04:4515.4818000   
2022-11-23 04:3015.2618000   
2022-11-23 04:1514.9518000   
2022-11-23 04:0014.6118000   
2022-11-23 03:4514.2218000   
2022-11-23 03:3013.7218000   
2022-11-23 03:1513.1518000   
2022-11-23 03:0012.4818000   
2022-11-23 02:4511.7218000   
2022-11-23 02:3010.9318000   
2022-11-23 02:1510.1318000   
2022-11-23 02:009.3618000   
2022-11-23 01:458.6518000   
2022-11-23 01:308.0018000   
2022-11-23 01:157.4318000   
2022-11-23 01:006.9218000   
2022-11-23 00:456.6018000   
2022-11-23 00:306.4618000   
2022-11-23 00:156.4318000   
2022-11-23 00:006.4618000   
2022-11-22 23:456.5618000   
2022-11-22 23:306.6718000   
2022-11-22 23:156.8118000   
2022-11-22 23:006.9818000   
2022-11-22 22:457.1718000   
2022-11-22 22:307.3818000   
2022-11-22 22:157.6218000   
2022-11-22 22:007.9018000   
2022-11-22 21:458.1918000   
2022-11-22 21:308.5118000   
2022-11-22 21:158.8618000   
2022-11-22 21:009.2418000   
2022-11-22 20:459.6418000   
2022-11-22 20:3010.0718000   
2022-11-22 20:1510.5118000   
2022-11-22 20:0010.9618000   
2022-11-22 19:4511.4218000   
2022-11-22 19:3011.8618000   
2022-11-22 19:1512.3118000   
2022-11-22 19:0012.7318000   
2022-11-22 18:4513.1618000   
2022-11-22 18:3013.5818000   
2022-11-22 18:1513.9918000   
2022-11-22 18:0014.4018000   
2022-11-22 17:4514.7918000   
2022-11-22 17:3015.1618000   
2022-11-22 17:1515.5418000   
2022-11-22 17:0015.9118000   
2022-11-22 16:4516.2718000   
2022-11-22 16:3016.6118000   
2022-11-22 16:1516.8718000   
2022-11-22 16:0017.0318000   
2022-11-22 15:4517.0818000   
2022-11-22 15:3017.0318000   
2022-11-22 15:1516.8918000   
2022-11-22 15:0016.7018000   
2022-11-22 14:4516.4418000   
2022-11-22 14:3016.1418000   
2022-11-22 14:1515.8418000   
2022-11-22 14:0015.5118000   
2022-11-22 13:4515.2018000   
2022-11-22 13:3014.8618000   
2022-11-22 13:1514.5018000   
2022-11-22 13:0014.1818000   
2022-11-22 12:4513.8118000   
2022-11-22 12:3013.4218000   
2022-11-22 12:1513.0318000   
2022-11-22 12:0012.6618000   
2022-11-22 11:4512.2418000   
2022-11-22 11:3011.7918000   
2022-11-22 11:1511.3618000   
2022-11-22 11:0010.9218000   
2022-11-22 10:4510.5518000   
2022-11-22 10:3010.3118000   
2022-11-22 10:1510.2418000   
2022-11-22 10:0010.3218000   
2022-11-22 09:4510.5018000   
2022-11-22 09:3010.7218000   
2022-11-22 09:1510.9618000   
2022-11-22 09:0011.2118000   
2022-11-22 08:4511.4818000   
2022-11-22 08:3011.7518000   
2022-11-22 08:1512.0418000   
2022-11-22 08:0012.3118000   
2022-11-22 07:4512.5718000   
2022-11-22 07:3012.8318000   
2022-11-22 07:1513.0918000   
2022-11-22 07:0013.3318000   
2022-11-22 06:4513.5618000   
2022-11-22 06:3013.8118000   
2022-11-22 06:1514.0518000   
2022-11-22 06:0014.2918000   
2022-11-22 05:4514.5018000   
2022-11-22 05:3014.7218000   
2022-11-22 05:1514.9018000   
2022-11-22 05:0015.0418000   
2022-11-22 04:4515.0918000   
2022-11-22 04:3015.0518000   
2022-11-22 04:1514.9718000   
2022-11-22 04:0014.7918000   
2022-11-22 03:4514.5218000   
2022-11-22 03:3014.2018000   
2022-11-22 03:1513.8118000   
2022-11-22 03:0013.3818000   
2022-11-22 02:4512.8918000   
2022-11-22 02:3012.3418000   
2022-11-22 02:1511.7218000   
2022-11-22 02:0011.0618000   
2022-11-22 01:4510.3918000   
2022-11-22 01:309.7318000   
2022-11-22 01:159.0818000   
2022-11-22 01:008.4518000   
2022-11-22 00:457.8718000   
2022-11-22 00:307.3418000   
2022-11-22 00:156.8618000   
2022-11-22 00:006.3718000   
2022-11-21 23:456.0218000   
2022-11-21 23:305.9318000   
2022-11-21 23:155.9818000   
2022-11-21 23:006.1018000   
2022-11-21 22:456.2418000   
2022-11-21 22:306.4218000   
2022-11-21 22:156.6218000   
2022-11-21 22:006.8318000   
2022-11-21 21:457.0818000   
2022-11-21 21:307.3618000   
2022-11-21 21:157.6418000   
2022-11-21 21:007.9618000   
2022-11-21 20:458.2918000   
2022-11-21 20:308.6418000   
2022-11-21 20:159.0218000   
2022-11-21 20:009.4318000   
2022-11-21 19:459.8418000   
2022-11-21 19:3010.2618000   
2022-11-21 19:1510.6918000   
2022-11-21 19:0011.1218000   
2022-11-21 18:4511.5418000   
2022-11-21 18:3011.9618000   
2022-11-21 18:1512.3718000   
2022-11-21 18:0012.7818000   
2022-11-21 17:4513.1918000   
2022-11-21 17:3013.5818000   
2022-11-21 17:1513.9618000   
2022-11-21 17:0014.3218000   
2022-11-21 16:4514.6918000   
2022-11-21 16:3015.0418000   
2022-11-21 16:1515.3818000   
2022-11-21 16:0015.6918000   
2022-11-21 15:4515.9618000   
2022-11-21 15:3016.1218000   
2022-11-21 15:1516.2118000   
2022-11-21 15:0016.1818000   
2022-11-21 14:4516.0518000   
2022-11-21 14:3015.8818000   
2022-11-21 14:1515.6418000   
2022-11-21 14:0015.3718000   
2022-11-21 13:4515.0518000   
2022-11-21 13:3014.7218000   
2022-11-21 13:1514.3718000   
2022-11-21 13:0014.0218000   
2022-11-21 12:4513.6618000   
2022-11-21 12:3013.2918000   
2022-11-21 12:1512.9018000   
2022-11-21 12:0012.5318000   
2022-11-21 11:4512.1418000   
2022-11-21 11:3011.7518000   
2022-11-21 11:1511.3218000   
2022-11-21 11:0010.8618000   
2022-11-21 10:4510.3918000   
2022-11-21 10:309.9118000   
2022-11-21 10:159.5118000   
2022-11-21 10:009.2318000   
2022-11-21 09:459.1118000   
2022-11-21 09:309.1218000   
2022-11-21 09:159.2218000   
2022-11-21 09:009.3718000   
2022-11-21 08:459.5718000   
2022-11-21 08:309.8018000   
2022-11-21 08:1510.0618000   
2022-11-21 08:0010.3218000   
2022-11-21 07:4510.6018000   
2022-11-21 07:3010.8718000   
2022-11-21 07:1511.1418000   
2022-11-21 07:0011.4118000   
2022-11-21 06:4511.6618000   
2022-11-21 06:3011.9018000   
2022-11-21 06:1512.1318000   
2022-11-21 06:0012.3618000   
2022-11-21 05:4512.5918000   
2022-11-21 05:3012.8418000   
2022-11-21 05:1513.0618000   
2022-11-21 05:0013.2918000   
2022-11-21 04:4513.5118000   
2022-11-21 04:3013.6818000   
2022-11-21 04:1513.8318000   
2022-11-21 04:0013.9218000   
2022-11-21 03:4513.9318000   
2022-11-21 03:3013.9118000   
2022-11-21 03:1513.7918000   
2022-11-21 03:0013.6218000   
2022-11-21 02:4513.3918000   
2022-11-21 02:3013.1018000   
2022-11-21 02:1512.7518000   
2022-11-21 02:0012.3518000   
2022-11-21 01:4511.8718000   
2022-11-21 01:3011.3618000   
2022-11-21 01:1510.8218000   
2022-11-21 01:0010.2818000   
2022-11-21 00:459.7618000   
2022-11-21 00:309.2418000   
2022-11-21 00:158.7518000   
2022-11-21 00:008.3118000   
2022-11-20 23:457.8618000   
2022-11-20 23:307.3718000   
2022-11-20 23:156.8818000   
2022-11-20 23:006.5618000   
2022-11-20 22:456.5018000   
2022-11-20 22:306.5418000   
2022-11-20 22:156.6518000   
2022-11-20 22:006.8018000   
2022-11-20 21:456.9818000   
2022-11-20 21:307.1918000   
2022-11-20 21:157.4318000   
2022-11-20 21:007.6818000   
2022-11-20 20:457.9618000   
2022-11-20 20:308.2618000   
2022-11-20 20:158.5918000   
2022-11-20 20:008.9418000   
2022-11-20 19:459.3018000   
2022-11-20 19:309.6918000   
2022-11-20 19:1510.0818000   
2022-11-20 19:0010.4918000   
2022-11-20 18:4510.8918000   
2022-11-20 18:3011.3018000   
2022-11-20 18:1511.6918000   
2022-11-20 18:0012.0818000   
2022-11-20 17:4512.4618000   
2022-11-20 17:3012.8418000   
2022-11-20 17:1513.2118000   
2022-11-20 17:0013.5718000   
2022-11-20 16:4513.9118000   
2022-11-20 16:3014.2518000   
2022-11-20 16:1514.5818000   
2022-11-20 16:0014.9018000